Terug naar catalogus

STARLINK-31055

ActiefCommunicatieVLEO
NORAD 58539·PAYLOAD·🇺🇸 United States

Gelanceerd Dec 8, 2023 vanaf Vandenberg Space Force Base

Loading…

Volgende Passages (komende 24 uur)

TLE

VersSource: CelesTrak SupGP

Epoch: Sep 15, 2026, 02:37 UTC

1 58539C 23192J   26258.10951389 -.00019752  00000+0 -58366-3 0  2580
2 58539  53.1572 258.7760 0001406  91.1854 304.2328 15.34396146    14

Volg STARLINK-31055 in realtime met AllMySat

Download on the App Store